Weather History for Palmdale, CA

Change the Weather History Date:

Sunday, September 29, 2013

  Actual Average Record
Temperature  
Mean Temperature 70 °F 69 °F  
Max Temperature 89 °F 85 °F 102 °F (1963)
Min Temperature 50 °F 53 °F 34 °F (1971)
Degree Days  
Heating Degree Days 0 1  
Month to date heating degree days 14 9  
Since 1 July heating degree days 14 9  
Cooling Degree Days 5 5  
Month to date cooling degree days 344 270  
Year to date cooling degree days 2109 1752  
Growing Degree Days 19 (Base 50)    
Moisture  
Dew Point 22 °F    
Average Humidity 21    
Maximum Humidity 36    
Minimum Humidity 6    
Precipitation  
Precipitation 0.00 in 0.01 in 0.98 in (1932)
Month to date precipitation T 0.28  
Year to date precipitation 0.99 5.84  
Since 1 July precipitation 0.13 0.52  
Snow  
Snow 0.00 in - 0.00 in (1973)
Month to date snowfall 0.0  
Since 1 July snowfall 0.0  
Since 1 September snowfall 0.0  
Snow Depth 0.00 in    
Sea Level Pressure  
Sea Level Pressure 30.02 in    
Wind  
Wind Speed 9 mph (SW)    
Max Wind Speed 25 mph    
Max Gust Speed 31 mph    
Visibility 10 miles    
Events      
T = Trace of Precipitation, MM = Missing Value Source: NWS Daily Summary

Daily Weather History Graph

Daily Weather History Graph

Search for Another Location

Airport:

Trip Planner

Search our weather history database for the weather conditions in past years. The results will help you decide how hot, cold, wet, or windy it might be!

Date:

Astronomy

Sep. 29, 2013 Rise Set
Actual Time 6:45 AM PDT 6:38 PM PDT
Civil Twilight 6:20 AM PDT 7:03 PM PDT
Nautical Twilight 5:51 AM PDT 7:32 PM PDT
Astronomical Twilight 5:21 AM PDT 8:02 PM PDT
Moon 1:42 AM PDT (9/29) 3:27 PM PDT (9/29)
Length of Visible Light 12h 43m
Length of Day
11h 52m
Waning Crescent, 26% of the Moon is Illuminated
Sep 29
Waning Crescent
Oct 4
New
Oct 11
First Quarter
Oct 18
Full
Oct 26
Last Quarter

Hourly Weather History & Observations

Time (PDT) Temp. Dew Point Humidity Pressure Visibility Wind Dir Wind Speed Gust Speed Precip Events Conditions
12:53 AM 55.0 °F 21.0 °F 27% 30.07 in 10.0 mi South 6.9 mph - N/A   Clear
1:53 AM 57.0 °F 24.1 °F 28% 30.07 in 10.0 mi South 4.6 mph - N/A   Clear
2:53 AM 54.0 °F 24.1 °F 31% 30.05 in 10.0 mi South 8.1 mph - N/A   Clear
3:53 AM 54.0 °F 21.0 °F 28% 30.03 in 10.0 mi WSW 4.6 mph - N/A   Clear
4:53 AM 50.0 °F 24.1 °F 36% 30.06 in 10.0 mi West 5.8 mph - N/A   Clear
5:53 AM 52.0 °F 24.1 °F 34% 30.06 in 10.0 mi SSE 5.8 mph - N/A   Clear
6:53 AM 52.0 °F 19.9 °F 28% 30.06 in 10.0 mi SSE 6.9 mph - N/A   Clear
7:53 AM 57.9 °F 23.0 °F 26% 30.06 in 10.0 mi SW 4.6 mph - N/A   Clear
8:53 AM 63.0 °F 24.1 °F 23% 30.08 in 10.0 mi WNW 4.6 mph - N/A   Clear
9:53 AM 71.1 °F 21.9 °F 16% 30.07 in 10.0 mi Calm Calm - N/A   Clear
10:53 AM 78.1 °F 19.9 °F 11% 30.05 in 10.0 mi Calm Calm - N/A   Clear
11:53 AM 82.9 °F 10.0 °F 6% 30.03 in 10.0 mi WSW 8.1 mph 18.4 mph N/A   Clear
12:53 PM 84.9 °F 10.9 °F 6% 30.01 in 10.0 mi SW 9.2 mph 19.6 mph N/A   Clear
1:53 PM 87.1 °F 14.0 °F 7% 29.98 in 10.0 mi Variable 6.9 mph 21.9 mph N/A   Clear
2:53 PM 88.0 °F 15.1 °F 7% 29.97 in 10.0 mi WSW 10.4 mph 18.4 mph N/A   Clear
3:53 PM 88.0 °F 19.0 °F 8% 29.96 in 10.0 mi West 20.7 mph 31.1 mph N/A   Clear
4:53 PM 86.0 °F 21.9 °F 10% 29.96 in 10.0 mi WNW 21.9 mph - N/A   Clear
5:53 PM 82.9 °F 23.0 °F 11% 29.96 in 10.0 mi WNW 21.9 mph - N/A   Clear
6:53 PM 77.0 °F 26.1 °F 15% 29.99 in 10.0 mi WSW 10.4 mph - N/A   Clear
7:53 PM 73.0 °F 27.0 °F 18% 30.01 in 10.0 mi WSW 12.7 mph - N/A   Clear
8:53 PM 71.1 °F 28.0 °F 20% 30.02 in 10.0 mi West 9.2 mph - N/A   Clear
9:53 PM 69.1 °F 28.0 °F 22% 30.02 in 10.0 mi SW 4.6 mph - N/A   Clear
10:53 PM 66.0 °F 28.0 °F 24% 30.01 in 10.0 mi SSW 10.4 mph - N/A   Clear
11:53 PM 63.0 °F 27.0 °F 26% 30.00 in 10.0 mi SSW 8.1 mph - N/A   Clear